EW0415 Weather Reports


time (UTC)temp
F
wind
direction
speed
knots
gust
knots
rain 1hr
in
rain 24hr
in
rain mn
in
humidity
%
barometer
mb
20260505025008 63 288 1.7 7.0 0.00 0.07 0.03 68 1025.2
20260505024528 62 290 1.7 7.0 0.00 0.07 0.03 68 1025.4
20260505024010 62 290 2.6 6.1 0.00 0.07 0.03 68 1025.3
20260505023508 62 0 1.7 6.1 0.00 0.07 0.03 68 1025.3
20260505023028 62 295 1.7 7.0 0.00 0.07 0.03 70 1025.3
20260505022509 62 0 1.7 7.0 0.00 0.07 0.03 70 1025.4
20260505022010 62 0 0.9 6.1 0.00 0.07 0.03 72 1025.5
20260505021529 62 280 2.6 6.1 0.00 0.07 0.03 73 1025.5
20260505021009 61 271 0.9 4.3 0.00 0.07 0.03 75 1025.5
20260505020508 61 360 0.0 4.3 0.00 0.07 0.03 76 1025.5
20260505020027 61 360 0.0 3.5 0.00 0.07 0.03 77 1025.5
20260505015513 61 0 0.9 3.5 0.00 0.07 0.03 78 1025.6
20260505015012 60 0 0.9 4.3 0.00 0.07 0.03 80 1025.6
20260505014525 60 0 0.0 4.3 0.00 0.07 0.03 81 1025.6
20260505014017 60 360 0.0 2.6 0.00 0.07 0.03 82 1025.6
20260505013509 59 360 0.9 2.6 0.00 0.07 0.03 84 1025.6
20260505013029 59 360 0.0 2.6 0.00 0.07 0.03 84 1025.6
20260505012508 59 286 0.9 3.5 0.00 0.07 0.03 85 1025.7
20260505012012 59 0 0.0 3.5 0.00 0.07 0.03 86 1025.6
20260505011527 58 360 0.9 4.3 0.00 0.07 0.03 87 1025.5
20260505011009 58 0 0.0 5.2 0.00 0.07 0.03 88 1025.5
20260505010512 58 360 1.7 5.2 0.00 0.07 0.03 88 1025.3
20260505010030 58 0 0.0 4.3 0.00 0.07 0.03 88 1025.3
20260505005509 59 279 0.0 5.2 0.00 0.07 0.03 89 1025.3
20260505005008 59 279 0.0 5.2 0.00 0.07 0.03 89 1025.2
20260505004530 59 274 0.0 2.6 0.00 0.07 0.03 90 1025.2
20260505004008 59 0 0.0 0.0 0.00 0.07 0.03 90 1025.2
20260505003511 58 0 0.0 0.0 0.00 0.07 0.03 90 1025.1
20260505003029 58 0 0.0 0.0 0.00 0.07 0.03 90 1025.0
20260505002511 58 0 0.0 0.0 0.00 0.08 0.03 90 1025.1
20260505002011 58 0 0.0 0.0 0.00 0.08 0.03 90 1025.0
20260505001529 58 0 0.0 0.0 0.00 0.08 0.03 90 1025.0
20260505001008 58 0 0.0 0.0 0.00 0.08 0.03 90 1024.9
20260505000507 58 0 0.0 0.0 0.00 0.08 0.03 90 1024.9
20260505000026 58 0 0.0 0.0 0.00 0.08 0.03 90 1024.9
20260504235508 58 0 0.0 0.0 0.00 0.08 0.03 90 1024.9
20260504235009 58 0 0.0 0.0 0.00 0.08 0.03 90 1024.8
20260504234534 58 0 0.0 0.0 0.00 0.08 0.03 90 1025.0
20260504234008 58 0 0.0 0.0 0.00 0.08 0.03 90 1024.8
20260504233508 57 0 0.0 0.0 0.00 0.08 0.03 90 1024.9
20260504233028 57 0 0.0 0.0 0.00 0.08 0.03 90 1024.9
20260504232509 57 0 0.0 0.0 0.00 0.08 0.03 89 1025.0
20260504232008 57 0 0.0 0.0 0.00 0.08 0.03 90 1024.8
20260504231527 57 0 0.0 0.0 0.00 0.08 0.03 90 1024.8
20260504231008 57 0 0.0 0.0 0.00 0.08 0.03 89 1024.7
20260504230507 57 0 0.0 0.0 0.00 0.08 0.03 89 1024.7
20260504230029 56 0 0.0 0.0 0.00 0.08 0.03 89 1024.6
20260504225516 56 0 0.0 0.0 0.00 0.08 0.03 89 1024.5
20260504225008 56 0 0.0 0.0 0.00 0.08 0.03 89 1024.5
20260504224528 56 0 0.0 0.0 0.00 0.08 0.03 89 1024.5
20260504224008 56 0 0.0 0.0 0.00 0.08 0.03 89 1024.4
20260504223508 56 0 0.0 0.0 0.00 0.08 0.03 89 1024.3
20260504223030 56 0 0.0 0.0 0.00 0.08 0.03 89 1024.4
20260504222510 55 0 0.0 0.0 0.00 0.18 0.03 89 1024.1
20260504222010 55 0 0.0 0.0 0.00 0.18 0.03 89 1024.2
20260504221528 55 0 0.0 0.0 0.00 0.18 0.03 89 1024.1
20260504221011 55 0 0.0 0.0 0.00 0.18 0.03 89 1024.0
20260504220508 54 0 0.0 0.0 0.00 0.18 0.03 89 1023.9
20260504220030 54 0 0.0 0.0 0.00 0.18 0.03 89 1024.0
20260504215510 54 0 0.0 0.0 0.00 0.18 0.03 88 1023.8
20260504215008 54 0 0.0 0.0 0.00 0.18 0.03 88 1023.8
20260504214528 54 0 0.0 0.0 0.00 0.18 0.03 88 1023.8
20260504214007 54 0 0.0 0.0 0.00 0.18 0.03 88 1023.8
20260504213511 54 0 0.0 0.0 0.00 0.18 0.03 88 1023.8
20260504213026 54 0 0.0 0.0 0.00 0.18 0.03 88 1023.8
20260504212508 53 0 0.0 0.0 0.00 0.22 0.03 88 1023.7
20260504212009 53 0 0.0 0.0 0.00 0.22 0.03 88 1023.6
20260504211527 53 0 0.0 0.0 0.00 0.21 0.03 88 1023.6
20260504211011 53 0 0.0 0.0 0.00 0.21 0.03 88 1023.5
20260504210509 53 0 0.0 0.0 0.00 0.21 0.03 88 1023.4
20260504210032 53 0 0.0 0.0 0.00 0.21 0.03 88 1023.3
20260504205512 53 0 0.0 0.0 0.00 0.21 0.03 88 1023.2
20260504205011 53 0 0.0 0.0 0.00 0.21 0.03 88 1023.1
20260504204527 53 0 0.0 0.0 0.00 0.21 0.03 88 1023.2
20260504204007 53 0 0.0 0.0 0.00 0.21 0.03 87 1023.1
20260504203513 53 0 0.0 0.0 0.00 0.21 0.03 87 1023.1
20260504203039 53 0 0.0 0.0 0.00 0.21 0.03 87 1023.0
20260504202511 53 0 0.0 0.0 0.00 0.21 0.03 87 1023.0
20260504202008 53 0 0.0 0.0 0.00 0.21 0.03 87 1023.0
20260504201531 53 0 0.0 0.0 0.00 0.21 0.03 87 1022.9
20260504201018 53 0 0.0 0.0 0.00 0.21 0.03 87 1023.0
20260504200510 53 0 0.0 0.0 0.00 0.21 0.03 87 1022.9
20260504200026 53 0 0.0 0.0 0.00 0.21 0.03 87 1022.9
20260504195509 53 0 0.0 0.0 0.00 0.21 0.03 87 1022.9
20260504195013 53 0 0.0 0.0 0.00 0.21 0.03 87 1022.8
20260504194533 53 0 0.0 0.0 0.00 0.21 0.03 87 1022.8
20260504194010 53 0 0.0 0.0 0.00 0.21 0.03 87 1022.7
20260504193514 53 0 0.0 0.0 0.00 0.21 0.03 87 1022.7
20260504193030 53 0 0.0 0.0 0.00 0.21 0.03 87 1022.7
20260504192509 53 0 0.0 0.0 0.00 0.29 0.03 87 1022.7
20260504192010 53 0 0.0 0.0 0.00 0.28 0.02 87 1022.7
20260504191529 53 0 0.0 0.0 0.00 0.28 0.02 87 1022.5
20260504191012 54 0 0.0 0.0 0.00 0.28 0.02 87 1022.5
20260504190508 54 0 0.0 0.0 0.00 0.28 0.02 87 1022.4
20260504190030 54 0 0.0 0.0 0.00 0.28 0.02 87 1022.4
20260504185509 54 0 0.0 0.0 0.00 0.28 0.02 87 1022.4
20260504185009 55 0 0.0 0.0 0.00 0.28 0.02 87 1022.4
20260504184530 55 0 0.0 0.0 0.00 0.28 0.02 87 1022.4
20260504184009 55 0 0.0 0.0 0.00 0.28 0.02 87 1022.4
20260504183512 55 0 0.0 0.0 0.00 0.28 0.02 87 1022.4
20260504183031 55 0 0.0 0.0 0.00 0.28 0.02 87 1022.3
20260504182519 55 0 0.0 0.0 0.00 0.28 0.02 87 1022.3
20260504182017 55 0 0.0 0.0 0.00 0.28 0.02 87 1022.1
20260504181527 55 0 0.0 0.0 0.00 0.28 0.02 87 1022.1
20260504181009 55 0 0.0 0.0 0.00 0.28 0.02 87 1022.1
20260504180511 55 0 0.0 0.0 0.00 0.28 0.02 87 1022.1
20260504180031 55 0 0.0 0.0 0.00 0.28 0.02 87 1022.1
20260504175508 55 0 0.0 0.0 0.00 0.28 0.02 87 1022.1
20260504175009 55 0 0.0 0.0 0.00 0.28 0.02 87 1022.1
20260504174526 55 0 0.0 0.0 0.00 0.28 0.02 87 1022.1
20260504174008 55 0 0.0 0.0 0.00 0.28 0.02 87 1022.1
20260504173510 55 0 0.0 0.0 0.01 0.28 0.02 87 1022.1
20260504173026 55 0 0.0 0.0 0.01 0.28 0.02 87 1022.0
20260504172508 56 0 0.0 0.0 0.01 0.29 0.02 87 1022.1
20260504172010 55 0 0.0 0.0 0.01 0.29 0.02 87 1022.3
20260504171528 55 0 0.0 0.0 0.01 0.29 0.02 86 1022.3
20260504171014 55 0 0.0 0.0 0.01 0.29 0.02 87 1022.3
20260504170508 55 0 0.0 0.0 0.01 0.29 0.02 87 1022.4
20260504151017 54 0 0.0 0.0 0.00 0.33 0.00 84 1022.1
20260504150512 54 0 0.0 0.0 0.00 0.33 0.00 83 1022.1
20260504141008 54 0 0.0 0.0 0.00 0.33 0.33 82 1021.8
20260504140516 54 0 0.0 0.0 0.00 0.33 0.33 82 1021.7
20260504130510 56 0 0.0 0.0 0.00 0.33 0.33 81 1021.6
20260504110511 60 0 0.0 2.6 0.03 0.34 0.33 74 1020.9
20260504100512 61 0 0.0 0.0 0.00 0.33 0.29 72 1019.7
20260504081531 62 284 1.7 7.8 0.00 0.33 0.29 69 1018.1
20260504081010 62 0 1.7 7.0 0.00 0.33 0.29 68 1018.2
20260504080511 63 288 1.7 7.8 0.00 0.33 0.29 68 1018.1
20260504050514 67 296 2.6 10.4 0.00 0.33 0.29 61 1016.4
20260504045509 67 229 2.6 10.4 0.00 0.33 0.29 61 1016.3
20260504045011 67 225 6.1 10.4 0.00 0.33 0.29 60 1016.2
20260504044532 68 277 3.5 11.3 0.00 0.33 0.29 59 1016.2
20260504044008 68 144 3.5 11.3 0.00 0.33 0.29 59 1016.3
20260504043508 68 273 3.5 9.6 0.00 0.33 0.29 59 1016.2
20260504043030 68 268 2.6 9.6 0.00 0.33 0.29 61 1016.2
20260504042509 67 284 3.5 10.4 0.00 0.33 0.29 62 1016.1
20260504042011 67 217 3.5 10.4 0.00 0.33 0.29 63 1016.3
20260504041527 67 252 3.5 10.4 0.00 0.33 0.29 64 1016.3
20260504041010 66 273 2.6 10.4 0.00 0.33 0.29 64 1016.1
20260504040510 66 297 3.5 10.4 0.00 0.33 0.29 63 1016.3
20260504040029 66 220 1.7 10.4 0.00 0.33 0.29 65 1016.4
20260504035512 66 272 1.7 9.6 0.00 0.33 0.29 64 1016.3
20260504035013 66 266 4.3 9.6 0.00 0.33 0.29 63 1016.3
20260504034528 67 274 3.5 10.4 0.00 0.33 0.29 63 1016.3
20260504034017 67 256 3.5 10.4 0.00 0.33 0.29 63 1016.3
20260504033508 66 260 2.6 10.4 0.00 0.33 0.29 63 1016.4
20260504033026 66 297 4.3 10.4 0.00 0.33 0.29 64 1016.2
20260504032512 66 269 4.3 12.2 0.00 0.33 0.29 66 1016.3
20260504032011 66 261 5.2 12.2 0.00 0.33 0.29 65 1016.3
20260504031530 66 290 4.3 10.4 0.00 0.33 0.29 67 1016.3
20260504031012 66 265 3.5 10.4 0.00 0.33 0.29 68 1016.4
20260504030509 65 283 4.3 10.4 0.00 0.33 0.29 67 1016.4
20260504030028 65 273 3.5 9.6 0.00 0.33 0.29 68 1016.5
20260504025510 65 267 2.6 10.4 0.00 0.33 0.29 68 1016.6